Dean International
Flight School

Career Spotlight

Mika

Mika

Congratulations to Mika from Khazakstan. She recently sent us this photo of her flying an Airbus airliner.

More...
Mika's Success Story
close

Congratulations to Mika from Khazakstan. She recently sent us this photo of her flying an Airbus airliner.

Mario

Mario

My dreams could not have been realized if I wouldn't have been part of the Dean International family.

More...
Mario's Success Story
close

"My dreams could not have been realized if I wouldn't have been part of the Dean International family. Thank you Robert, thanks to all my co-workers, and thanks to all of my students!"

Fernando

Fernando

I am now working as a First Officer at TACA and am enjoying every moment of it.

More...
Fernando's Success Story
close

"Will never forget my time of flight training at Dean International. I am now working as a First Officer at TACA and am enjoying every moment of it."

Alvaro

Alvaro

Because of the flight time I was able to built while instructing, I got the experience needed to apply to an airline in Colombia.

More...
Alvaro's Success Story
close

Dean alumnus Alvaro Londoño currently flies with Tampa Cargo. He says of his experience at Dean: "I want to take this opportunity to thank you for giving me the chance to build my experience and expand my knowledge in Dean International. Because of the flight time I was able to built flight instructing, I got the experience needed to apply to an airline in Colombia."

Ralph

Ralph

Every Aruban student of Dean International has made it into Tiara Air Aruba, that is very nice.

More...
Ralph's Success Story
close

"Next to me is my Co-Pilot, Elison. This picture was taken on our first flight together, which was almost exactly 5 years after I finished at Dean International. [...] Every Aruban student of Dean International has made it into Tiara Air Aruba. [...] The future looks bright here in Aruba."

Rohaan

Rohaan

The [..] staff will all work diligently to help you finish your certificates as safely and efficiently as possible.

More...
Rohaan's Success Story
close

After receiving very hard times from other flight schools [...], I came to Dean International where Robert Dean personally sat down with me and gave me a financial and chronological look into how much remained to finish my private pilot certificate. Through his hard efforts as an instructor and mentor, I was able to finish my private pilot certificate within one week.

Welcome to Dean International

In over two decades, Dean International has educated over 7,000 pilots from all over the world, including over 1,000 students from India alone. By offering a great training experience, a friendly service staff, an ample variety of aircraft, and by improving constantly, we have become one of the largest, most prestigious FAA 141-approved flight schools in North America. Located in Miami, Florida, USA, our flight school offers an ideal location for year-round, "learn to fly" weather, flight training. Dean International is not only well-equipped to provide services to professional trainees but also caters to General Aviation renters. Visit or contact our headquarters at Kendall-Tamiami Executive Airport located in Miami, FL today to learn more about us, or simply read more about our programs if you are an international student interested in joining our school.

Local Airport Information
TAF FOR KTMB (Issued: Fri, October 24th 2014 9:09 PM UTC)
TAF
      AMD KTMB 242106Z 2421/2518 03012G22KT P6SM VCSH FEW025 OVC040
      FM250000 02010KT P6SM SCT030 BKN050
      FM250700 35008KT P6SM SCT030 SCT120
     
METAR FOR KTMB (Issued: Sat, October 25th 2014 1:53 AM UTC):
KTMB 250153Z 01010KT 10SM SCT030 BKN037 25/21 A2986 RMK AO2 SLP110 T02500206

This weather information is provided by the National Weather Service.
It is automatically refreshed every three minutes.
TAF FOR KHST (Issued: Sat, October 25th 2014 12:24 AM UTC)
TAF KHST 2500/2606 02011KT 9999 SCT020 QNH2978INS
      BECMG 2510/2511 36008KT 9999 FEW030 QNH2987INS TX28/2520Z TN21/2511Z
     
METAR FOR KHST (Issued: Sat, October 25th 2014 1:58 AM UTC):
KHST 250158Z AUTO 34007KT 10SM FEW035 24/21 A2985 RMK AO2 RAE0100DZB0141E0150 SLP111 P0000 T02350211

This weather information is provided by the National Weather Service.
It is automatically refreshed every three minutes.
TAF FOR KOPF (Issued: Fri, October 24th 2014 9:09 PM UTC)
TAF
      AMD KOPF 242106Z 2421/2518 04010G20KT P6SM VCSH SCT025 OVC035
      FM242300 03012G22KT P6SM SCT030 BKN050
      FM250500 35008KT P6SM SCT030 SCT120
     
METAR FOR KOPF (Issued: Sat, October 25th 2014 2:05 AM UTC):
KOPF 250205Z AUTO 01008KT 10SM -RA SCT026 BKN031 OVC039 24/21 A2987 RMK AO2 P0000 T02440206

This weather information is provided by the National Weather Service.
It is automatically refreshed every three minutes.
TAF FOR KMIA (Issued: Fri, October 24th 2014 9:09 PM UTC)
TAF
      AMD KMIA 242103Z 2421/2518 04010G20KT P6SM VCSH FEW020 BKN040
      FM242300 01010G20KT P6SM SCT030 BKN050
      FM250500 34008KT P6SM SCT030 SCT120
     
METAR FOR KMIA (Issued: Sat, October 25th 2014 2:17 AM UTC):
KMIA 250217Z 35006KT 10SM SCT033 SCT042 24/21 A2986 RMK AO2 T02440206

This weather information is provided by the National Weather Service.
It is automatically refreshed every three minutes.
Design by Ariel Llizo
© Dean International Inc. 2012